Location: Austin
(30.3000°N, 97.7500°W)
Time: 03:45:06
(UTC-05:00)

DELTA 2 R/B (1) - Pass Details

Date: 01 October 2024
Orbit: 788 x 801 km, 39.6° (Epoch: 06 October)

Event Time Altitude Azimuth Distance (km) Brightness Sun altitude
Rises 19:38:08 0° 262° (W) 3,282 9.2 -5.7°
Reaches altitude 10° 19:40:42 10° 268° (W) 2,356 7.9 -6.3°
Maximum altitude 19:46:03 47° 342° (NNW) 1,047 4.4 -7.4°
Drops below altitude 10° 19:51:25 10° 55° (NE) 2,366 5.6 -8.6°
Enters shadow 19:52:27 - 58° (ENE) 2,729 5.8 -8.8°
